TimeMST,TemperatureF,Dew PointF,Humidity,Sea Level PressureIn,VisibilityMPH,Wind Direction,Wind SpeedMPH,Gust SpeedMPH,PrecipitationIn,Events,Conditions,WindDirDegrees,DateUTC
12:53 AM,27.0,12.9,56,30.25,5.0,SSW,3.5,-,N/A,,Haze,200,2012-12-29 07:53:00
1:53 AM,27.0,14.0,58,30.25,10.0,Calm,Calm,-,N/A,,Clear,0,2012-12-29 08:53:00
2:53 AM,28.0,14.0,56,30.25,10.0,WNW,3.5,-,N/A,,Clear,300,2012-12-29 09:53:00
3:53 AM,27.0,16.0,63,30.25,10.0,Calm,Calm,-,N/A,,Clear,0,2012-12-29 10:53:00
4:53 AM,26.6,15.8,64,30.21,7.0,Calm,Calm,-,N/A,,Clear,0,2012-12-29 11:53:00
5:53 AM,27.0,15.1,61,30.27,10.0,Calm,Calm,-,N/A,,Clear,0,2012-12-29 12:53:00
6:53 AM,27.0,16.0,63,30.27,8.0,Calm,Calm,-,N/A,,Clear,0,2012-12-29 13:53:00
7:53 AM,28.0,16.0,61,30.28,10.0,Calm,Calm,-,N/A,,Clear,0,2012-12-29 14:53:00
8:53 AM,28.9,17.1,61,30.29,5.0,Calm,Calm,-,N/A,,Haze,0,2012-12-29 15:53:00
9:53 AM,30.9,17.1,57,30.27,10.0,Calm,Calm,-,N/A,,Clear,0,2012-12-29 16:53:00
10:53 AM,30.9,16.0,54,30.28,10.0,Calm,Calm,-,N/A,,Clear,0,2012-12-29 17:53:00
11:53 AM,34.0,15.1,46,30.23,10.0,North,4.6,-,N/A,,Clear,350,2012-12-29 18:53:00
12:53 PM,35.1,15.1,44,30.18,10.0,NE,6.9,-,N/A,,Clear,40,2012-12-29 19:53:00
1:53 PM,36.0,15.1,43,30.13,10.0,ENE,4.6,-,N/A,,Clear,70,2012-12-29 20:53:00
2:53 PM,37.0,14.0,39,30.11,10.0,NE,8.1,-,N/A,,Clear,40,2012-12-29 21:53:00
3:53 PM,35.6,12.2,38,30.06,10.0,NE,8.1,-,N/A,,Clear,50,2012-12-29 22:53:00
4:53 PM,35.1,12.0,39,30.11,10.0,NE,3.5,-,N/A,,Clear,40,2012-12-29 23:53:00
5:53 PM,32.0,12.0,44,30.10,10.0,ENE,3.5,-,N/A,,Clear,70,2012-12-30 00:53:00
6:53 PM,30.9,12.9,47,30.12,10.0,Calm,Calm,-,N/A,,Clear,0,2012-12-30 01:53:00
7:53 PM,28.9,12.9,51,30.12,10.0,Calm,Calm,-,N/A,,Clear,0,2012-12-30 02:53:00
8:31 PM,28.4,12.2,51,30.07,2.5,Calm,Calm,-,N/A,,Haze,0,2012-12-30 03:31:00
8:40 PM,28.4,12.2,51,30.07,3.0,Calm,Calm,-,N/A,,Haze,0,2012-12-30 03:40:00
8:53 PM,28.0,14.0,56,30.12,6.0,Calm,Calm,-,N/A,,Haze,0,2012-12-30 03:53:00
9:53 PM,27.0,12.9,56,30.11,7.0,Calm,Calm,-,N/A,,Clear,0,2012-12-30 04:53:00
10:53 PM,26.1,12.9,58,30.11,7.0,Calm,Calm,-,N/A,,Clear,0,2012-12-30 05:53:00
11:53 PM,26.1,12.9,58,30.09,8.0,Calm,Calm,-,N/A,,Clear,0,2012-12-30 06:53:00